RH
85 88 87 87 89 79 71 68 66 67 68 67 66 68 62 46 30 30 40 43 68 72 53 57 54 46 41 39 42 58 57 52 44 44 60 69 58 64 77 89 94 95 94
90 89 81 84 84 87 87 79 74 74 73 71 69 69 71 63 43 28 45 46 44 47 80 78 58 56 50 44 41 42 47 46 56 66 61 67 58 53 74 86 95 88 92
92 96 97 86 85 81 87 86 86 80 76 76 74 73 72 80 72 51 32 51 52 44 84 90 84 76 64 54 46 43 46 45 67 78 78 81 62 61 47 75 87 88 91
93 93 95 86 81 78 82 85 86 87 87 82 76 78 76 75 76 80 76 44 52 65 75 84 80 79 80 69 58 47 46 46 68 82 85 80 76 75 50 53 73 83 84
88 90 89 83 77 74 83 84 85 87 88 87 85 81 76 74 72 78 79 84 71 45 49 70 78 79 78 78 70 58 48 46 59 71 79 80 73 73 71 55 55 75 80
64 67 74 74 71 68 74 80 84 86 87 87 87 88 86 81 78 78 77 78 81 79 72 52 58 69 74 74 74 68 57 49 47 60 68 73 81 87 76 68 80 56 82
55 51 58 62 64 65 64 62 74 84 88 88 87 87 82 83 87 87 85 81 80 80 81 79 76 65 56 63 70 71 68 58 52 52 67 68 75 84 72 64 75 76 64
54 52 53 54 56 62 65 69 73 81 89 91 74 80 74 74 76 83 82 80 82 83 84 84 84 83 80 71 65 64 67 69 61 55 62 74 71 82 80 61 56 57 71
46 44 45 49 51 56 63 67 65 63 69 73 73 70 76 73 77 76 79 82 75 84 86 87 88 88 85 84 83 77 71 72 72 66 58 69 73 77 88 85 62 50 49
49 47 43 40 38 38 40 45 52 57 58 59 59 60 62 64 65 67 68 68 73 77 89 88 90 91 88 87 89 88 84 81 76 72 70 62 71 76 84 88 82 64 45
48 46 44 39 36 32 28 27 27 26 26 31 38 49 56 58 60 61 60 62 64 62 67 80 90 91 94 93 91 87 88 87 84 82 77 72 69 72 75 82 82 75 52
47 46 40 36 34 31 28 25 24 24 24 24 23 23 24 25 28 35 44 52 56 58 58 58 60 66 77 92 94 94 92 89 89 88 88 84 79 76 73 76 78 81 72
32 37 36 36 33 30 23 18 17 17 17 17 17 17 17 17 17 18 20 24 29 36 39 41 50 56 60 71 84 87 92 96 94 93 92 91 89 90 85 73 78 85 84
30 30 30 30 30 29 21 18 16 17 18 19 21 22 22 22 21 20 19 19 18 17 19 28 37 45 51 57 76 86 87 84 90 99 92 93 83 90 90 84 81 83 87
25 28 29 27 26 23 19 19 20 22 24 27 31 34 36 36 35 35 34 32 30 26 24 22 28 39 49 56 62 72 81 84 85 83 83 88 89 89 96 89 86 81 85
17 21 24 23 22 21 21 20 23 27 33 34 32 28 26 26 25 25 25 26 27 30 35 35 29 25 24 28 37 62 68 73 77 82 83 83 85 90 91 95 95 94 90
22 21 22 24 27 30 24 23 27 34 31 24 20 17 15 14 12 12 12 12 14 16 19 24 32 38 37 33 30 29 34 45 66 75 77 79 81 84 86 88 99 99 95
21 27 27 28 31 29 25 30 36 36 31 26 22 18 15 11 11 11 8 8 10 12 15 21 26 32 39 44 44 40 37 35 34 42 56 68 74 73 66 67 72 90 99
22 30 38 40 37 30 27 30 40 35 26 21 17 14 11 10 8 7 8 9 7 7 8 12 15 26 30 36 45 50 52 53 49 45 41 42 53 66 77 85 77 69 81
30 43 47 41 34 33 33 42 42 33 23 18 14 12 10 10 10 8 7 8 10 18 35 41 38 38 44 53 64 66 63 55 52 52 52 51 46 48 55 66 74 80 80
43 42 40 39 46 49 51 46 37 29 23 19 12 11 14 11 8 7 13 31 52 50 42 44 47 48 51 72 83 74 63 55 52 55 63 62 64 60 52 51 55 63 68
43 47 50 44 48 56 49 44 43 35 27 21 14 10 8 8 9 17 33 52 49 45 46 49 56 61 66 81 82 86 82 68 75 77 75 74 72 71 70 68 67 65 60
38 46 44 47 44 34 45 44 42 38 34 27 20 12 8 7 10 26 48 56 51 49 46 48 55 70 79 76 86 87 86 82 76 71 63 66 69 70 67 64 62 62 64
41 43 38 39 39 43 42 40 44 45 39 33 26 16 9 8 10 19 46 58 54 51 51 57 65 74 88 85 84 78 86 96 98 94 84 74 70 69 67 64 66 66 65
47 46 45 45 38 36 40 42 45 45 45 37 32 22 12 8 9 14 33 62 59 54 57 61 73 86 89 90 89 93 98 92 90 95 96 82 60 55 54 57 54 49 47
44 47 51 52 50 50 49 51 55 54 50 43 38 28 16 10 9 11 18 26 40 56 67 75 80 86 85 94 97 98 98 100 98 100 100 86 81 63 63 54 45 46 46
Wind_Speed
3 3 2 1 1 2 1 1 1 1 1 2 3 4 4 3 2 2 1 2 2 2 3 4 2 4 4 2 1 2 2 4 5 4 5 6 4 4 5 6 6 9 9
5 5 4 1 3 3 3 3 2 2 1 1 1 2 3 3 3 1 1 1 3 2 1 3 2 4 4 3 3 2 2 3 4 5 5 5 4 3 3 5 6 5 1
6 3 3 4 4 5 5 4 4 5 5 4 3 3 3 2 2 2 2 1 2 3 2 3 4 4 4 4 3 2 1 1 3 4 4 2 6 4 5 4 6 5 4
6 4 6 6 6 5 6 6 6 6 6 7 7 6 6 5 4 3 3 3 3 3 4 6 7 7 6 5 4 2 1 1 4 1 1 2 1 2 2 9 8 8 7
7 9 9 8 6 5 5 6 6 7 7 8 8 9 9 8 7 7 7 6 5 5 6 8 9 8 8 7 5 4 3 3 5 4 4 3 2 2 5 4 10 9 7
7 8 7 7 6 6 6 7 7 7 8 8 8 9 9 9 10 9 9 9 9 8 7 8 9 9 10 9 8 6 5 5 7 7 7 7 4 5 8 6 7 10 10
7 6 6 7 6 7 8 8 8 8 8 7 8 8 7 9 10 10 10 11 11 11 11 10 10 10 11 11 10 9 8 7 8 9 9 9 7 6 10 10 9 9 11
11 9 8 8 7 7 7 8 7 8 9 10 11 11 12 12 12 11 11 12 12 12 13 13 13 13 12 12 11 11 11 10 11 11 12 12 10 9 11 11 11 13 12
11 11 10 9 9 9 9 11 10 10 11 12 13 13 14 15 16 15 14 14 13 16 16 15 15 15 15 14 14 13 13 13 13 13 14 15 14 13 13 15 13 13 17
13 13 12 13 12 12 12 14 13 14 14 15 16 16 17 17 18 19 19 18 16 19 17 17 17 18 17 17 16 15 15 15 16 15 16 17 18 17 16 17 17 15 15
14 16 16 14 14 15 16 17 17 18 18 18 19 20 21 20 19 19 18 19 18 18 18 19 19 19 20 20 21 20 19 20 19 19 18 18 19 22 20 19 19 18 16
15 19 20 19 18 18 19 19 20 20 20 20 21 21 22 22 22 23 23 23 23 22 22 22 21 21 21 22 23 23 24 24 24 23 22 19 19 22 25 24 23 19 18
18 21 22 23 24 24 22 20 20 20 20 20 20 21 22 23 23 24 24 25 26 26 25 24 24 22 22 20 20 21 23 26 27 27 25 21 18 19 22 25 25 21 20
21 23 23 26 26 26 23 20 19 19 19 20 20 21 22 22 23 24 24 24 24 25 26 26 25 24 24 23 24 23 22 22 22 25 25 22 21 22 23 24 22 23 24
23 24 25 28 29 26 22 20 19 19 18 18 18 19 20 20 20 21 22 23 23 24 25 27 28 28 27 26 25 26 26 25 23 23 24 26 27 26 26 26 27 27 26
20 21 24 25 24 22 21 20 19 18 17 16 16 16 16 17 17 17 17 18 18 20 22 26 28 30 31 31 32 30 28 27 27 27 26 26 24 26 28 29 29 31 31
26 24 24 22 19 20 20 19 19 18 17 17 16 15 16 16 16 16 17 17 18 18 19 21 23 26 29 30 31 31 33 34 31 29 28 28 26 24 24 26 30 34 33
19 25 26 21 19 18 19 18 17 17 16 16 16 16 16 17 17 17 18 18 18 18 19 20 21 22 24 26 28 30 32 32 33 34 33 30 28 29 28 28 27 27 32
17 18 20 17 18 19 18 17 16 15 15 14 15 16 17 17 18 18 18 19 20 20 20 21 21 23 24 23 25 25 27 28 30 31 32 33 32 28 27 26 27 28 27
10 10 15 18 21 20 19 16 14 15 15 16 15 15 16 15 15 17 19 19 20 21 21 22 23 21 22 21 23 24 25 26 26 26 28 29 30 31 29 28 28 25 23
13 11 14 17 18 16 14 13 15 14 13 14 16 16 15 15 17 17 17 17 19 19 19 19 21 20 20 17 20 22 22 20 18 16 18 18 18 21 27 31 32 33 33
16 14 13 11 13 16 16 17 16 14 13 14 15 15 17 16 16 17 17 17 16 16 16 17 17 18 17 12 14 17 10 13 3 2 3 6 10 12 14 14 15 17 23
17 17 16 15 13 14 17 17 17 16 15 14 15 15 15 17 16 15 16 16 15 14 13 12 11 12 12 6 6 7 7 5 23 11 13 15 15 15 15 17 18 17 15
19 19 19 17 16 15 16 17 18 18 17 17 17 17 16 17 16 16 16 16 14 12 11 10 8 5 7 7 6 7 11 14 9 12 17 24 21 19 19 19 19 18 19
19 21 21 21 20 18 18 19 20 19 18 18 18 18 17 17 17 16 15 15 14 11 10 9 6 4 6 8 9 13 14 15 16 17 24 24 27 23 20 20 20 22 22
18 21 22 23 23 23 23 23 23 21 19 19 18 18 17 16 16 15 16 16 17 14 11 8 7 8 9 10 12 14 15 15 17 17 24 29 30 30 27 24 22 20 19
Wind_Direction
226 211 163 73 286 255 247 250 148 105 78 46 31 31 32 37 49 61 85 164 179 232 309 354 47 45 51 54 35 84 45 38 53 90 94 84 86 108 101 101 103 132 126
222 215 201 264 303 279 252 255 256 256 271 293 356 0 10 24 27 23 21 246 215 233 292 348 82 29 23 24 15 27 43 45 79 103 115 87 78 145 140 132 138 137 138
204 233 266 288 282 280 259 255 264 270 272 275 274 288 306 324 359 353 315 300 290 251 253 277 280 337 345 349 355 358 27 71 132 103 100 86 100 61 222 197 190 188 230
199 219 258 280 295 269 261 266 273 276 277 273 273 272 275 282 283 284 294 283 258 249 251 257 273 282 299 315 320 322 277 232 189 210 189 157 227 14 304 226 219 215 228
233 245 260 276 264 271 267 268 270 273 280 282 280 283 282 284 286 281 283 281 280 265 267 265 267 272 278 283 291 288 270 238 215 223 247 259 286 324 303 251 231 230 227
245 256 257 255 259 269 271 273 275 279 279 277 277 277 283 288 286 287 283 287 278 278 276 275 271 272 271 272 274 274 261 244 231 236 241 260 262 305 284 273 249 238 232
258 266 269 273 274 275 274 273 271 271 278 276 277 271 283 290 286 284 285 286 282 279 277 278 278 276 273 271 267 268 263 252 245 241 240 253 251 261 283 280 259 248 241
276 282 278 275 278 279 281 277 272 271 268 269 266 263 269 273 285 276 274 279 284 284 277 279 279 278 277 270 270 269 266 258 251 250 247 253 257 248 281 288 275 262 254
274 284 288 280 277 275 272 271 270 268 263 266 267 274 266 265 264 270 272 268 265 277 277 273 271 270 273 272 271 271 270 267 262 256 254 250 257 258 267 289 284 277 256
272 279 280 283 287 284 278 277 275 271 268 267 267 266 264 264 266 268 268 267 256 260 265 270 271 271 269 268 269 268 268 266 266 264 258 256 254 260 254 264 276 286 266
274 280 281 282 287 287 284 283 280 277 274 271 268 267 266 265 265 266 267 268 267 262 263 265 269 271 270 269 270 268 267 268 270 268 266 260 256 257 259 257 264 271 271
271 277 283 287 291 291 289 284 281 278 278 276 274 272 269 267 265 265 266 266 268 268 269 268 266 268 268 270 269 269 271 274 276 275 272 267 259 258 260 256 260 263 269
278 274 280 286 291 293 290 286 280 279 276 275 274 273 272 271 269 266 265 264 264 266 267 265 263 262 262 264 267 271 273 271 271 271 272 271 262 260 263 257 255 256 265
280 279 283 286 289 289 288 285 283 283 282 280 278 276 274 273 272 272 271 268 266 264 264 263 261 260 259 260 262 264 266 272 276 273 273 268 263 256 259 256 259 261 262
279 280 284 291 296 290 289 292 295 296 295 293 289 285 284 282 280 277 276 276 274 270 268 265 263 263 261 262 264 264 266 267 268 271 272 271 267 264 258 254 252 255 260
303 289 286 292 297 292 293 296 296 295 293 291 289 289 289 289 291 291 288 284 280 275 270 266 265 263 262 261 258 257 261 264 267 269 270 270 271 270 264 260 257 260 258
286 285 283 290 296 297 298 299 299 297 297 296 295 292 290 293 292 290 289 288 285 280 276 272 268 266 265 262 262 259 258 257 258 261 265 269 271 268 272 270 264 256 257
293 268 272 279 291 300 297 298 297 297 297 296 296 295 295 296 294 294 292 290 287 284 282 279 276 273 271 270 268 263 262 262 261 259 260 262 266 267 268 267 269 266 261
293 258 261 275 291 300 301 297 293 292 294 295 294 294 293 292 293 292 290 289 288 288 288 288 284 283 281 277 275 275 272 268 264 261 259 259 259 265 269 269 266 264 263
355 264 271 291 303 301 298 293 289 292 299 302 300 295 294 292 290 288 290 293 293 291 289 286 284 283 285 287 288 287 284 279 275 271 269 264 262 261 262 266 267 267 264
356 323 299 301 307 303 296 300 302 300 301 309 306 306 302 297 295 295 295 295 294 293 293 291 289 290 286 288 294 296 295 296 289 284 275 273 272 273 269 267 268 270 269
356 344 340 333 322 315 311 309 306 306 311 316 316 313 309 306 304 304 303 302 301 299 299 296 290 293 291 289 303 323 333 345 49 352 317 322 286 279 284 278 273 270 273
333 332 332 329 329 329 318 314 311 311 313 317 315 314 311 307 307 307 308 308 307 308 313 312 301 290 294 294 286 314 329 318 315 318 293 297 302 300 290 287 284 277 274
327 333 336 329 326 323 319 318 313 311 314 317 320 320 320 316 314 314 313 312 309 303 309 315 316 300 272 294 287 275 280 300 320 315 301 302 300 294 291 289 284 275 270
310 315 321 323 319 315 314 319 316 313 312 316 319 320 322 322 316 315 315 312 306 293 293 298 287 270 267 288 292 292 293 279 284 296 308 302 300 298 294 292 288 284 282
305 301 301 305 311 316 313 315 317 311 310 313 316 317 322 322 316 317 315 312 307 294 295 289 274 263 254 271 283 286 294 296 298 301 300 302 305 303 304 301 299 298 293